Torna al catalogo

COSMOS 2499 DEB

LostPO
NORAD 49928·DEBRIS·🇷🇺 Russia

Lanciato May 23, 2014 da Plesetsk Cosmodrome

Loading…

Prossimi Passaggi (prossime 24 ore)

TLE

ObsoletoSource: Space-Track

Epoca: Jan 26, 2022, 22:02 UTC

1 49928U 14028K   22026.91813342  .00015590  00000-0  62500-1 0  9994
2 49928  82.4517 254.3655 0203937 156.0196 215.7049 12.80209722 11073

Traccia COSMOS 2499 DEB in tempo reale con AllMySat

Download on the App Store